Theta_e
340 342 344 345 344 345 348 351 355 367 360 358 357 360 357 358 361 361 362 373 369 370 369 373 364 367 357 359 357 355 355 353 354 354 352 356 351 350 351 352 352 355 353
339 343 345 345 346 347 349 352 357 365 361 359 359 360 359 357 362 368 370 370 370 371 368 366 357 365 359 359 353 353 350 352 351 347 345 340 342 348 349 348 348 351 351
338 340 342 344 347 350 352 353 359 361 359 364 364 368 371 373 367 368 364 366 368 371 370 370 366 364 359 352 355 353 350 344 350 346 345 338 337 343 347 346 347 346 344
339 340 341 342 344 351 355 359 359 364 362 365 365 366 358 362 354 351 356 366 370 368 368 370 369 362 358 355 356 353 355 352 344 347 346 348 348 338 336 342 344 345 343
339 339 340 343 346 349 353 358 363 363 362 364 368 365 365 363 353 352 363 362 369 367 368 364 364 362 360 359 359 358 355 351 348 343 342 345 345 346 339 335 336 341 343
338 341 343 345 346 349 352 357 361 365 366 365 365 368 368 362 362 353 361 360 362 367 363 362 364 361 360 359 359 358 354 351 347 347 345 341 340 340 339 338 337 334 340
335 340 341 343 346 348 350 355 362 363 367 368 366 365 369 372 364 351 358 359 357 361 363 366 364 359 362 361 359 358 352 347 345 346 342 342 340 341 338 334 336 335 336
335 339 343 346 346 347 349 351 361 364 367 365 367 369 369 366 366 368 366 356 356 358 366 365 363 362 360 360 360 357 349 349 345 341 343 341 340 340 338 335 333 332 334
337 339 341 342 345 346 348 352 361 364 365 365 367 369 369 368 365 374 365 362 363 364 362 364 364 359 354 361 359 352 347 345 346 339 341 342 337 336 337 336 334 331 328
338 338 342 344 347 347 348 352 362 364 365 364 367 367 369 369 373 372 365 363 365 368 364 364 361 359 359 358 360 351 347 342 342 338 339 338 337 336 333 335 335 333 331
337 338 340 346 347 350 350 350 355 361 363 363 365 366 367 369 369 367 368 366 372 367 367 363 360 359 359 359 357 347 345 340 339 337 334 334 337 333 331 331 333 332 330
335 338 340 343 344 351 352 352 353 353 359 361 364 365 367 367 366 365 367 366 369 369 365 363 360 359 357 357 354 348 340 338 336 333 332 332 330 332 334 328 329 331 333
335 337 340 348 351 354 369 367 355 354 357 361 361 363 366 365 364 365 367 365 369 368 365 363 358 357 355 354 351 343 339 337 334 334 333 332 334 332 333 334 333 330 330
343 341 341 346 356 362 373 373 376 363 366 361 359 361 365 366 366 367 367 367 369 366 364 361 359 356 355 352 342 337 334 331 326 327 328 331 334 335 334 332 331 331 329
346 351 352 358 358 362 367 368 375 380 383 383 378 374 370 371 371 371 367 370 368 366 364 360 357 355 352 344 336 334 331 326 325 327 332 330 330 330 329 332 334 335 332
341 344 350 355 360 361 363 368 371 377 379 378 377 377 370 370 368 370 369 370 366 364 361 358 356 349 346 334 333 331 327 328 327 329 330 329 327 326 327 327 326 326 328
339 343 342 344 351 359 366 362 370 374 373 372 370 372 373 369 369 369 367 364 361 362 360 356 351 347 343 329 330 331 326 326 329 334 328 323 323 330 326 323 324 324 325
338 343 343 341 345 351 364 369 368 369 370 367 366 368 368 365 366 366 365 363 361 358 355 353 351 348 333 326 326 329 325 330 333 332 331 332 327 333 333 332 332 331 326
340 340 340 341 356 360 367 368 365 367 368 366 364 357 357 367 363 361 361 362 359 355 352 351 348 348 329 323 324 326 329 331 333 331 333 331 333 325 324 333 332 330 328
338 337 338 339 347 352 358 366 365 367 363 364 365 363 354 359 364 363 363 362 359 352 350 351 349 343 331 321 320 324 327 329 327 330 333 329 331 322 323 329 333 329 329
336 337 340 341 350 357 356 360 362 364 363 364 368 366 359 350 359 367 365 360 355 353 349 347 347 340 333 323 318 319 329 327 325 325 328 326 321 320 319 319 329 327 325
334 336 342 348 350 356 360 360 361 366 369 372 368 368 367 362 362 365 362 359 353 350 342 341 341 342 335 323 317 317 319 327 324 325 328 326 317 315 317 319 322 320 320
335 337 344 347 352 356 362 356 367 366 366 367 367 372 369 366 364 362 357 354 351 345 338 334 331 339 338 329 318 315 317 319 327 330 327 319 313 313 318 317 318 317 323
335 337 341 344 348 358 359 365 368 369 365 363 363 365 369 364 362 359 354 348 345 342 338 335 333 339 337 331 324 317 318 322 324 321 320 319 319 319 322 321 318 319 324
341 344 344 346 349 354 358 357 366 366 361 359 360 358 356 351 346 347 343 345 347 340 341 336 340 339 336 330 320 315 317 323 323 324 322 321 321 320 322 325 326 325 325
345 346 346 348 345 350 351 356 366 363 359 356 354 349 346 342 342 340 327 312 318 315 315 316 326 341 328 312 309 305 308 311 311 325 321 321 319 318 319 320 321 324 327
Wind_Speed
17 17 16 15 16 14 12 11 9 7 9 8 6 4 5 6 4 6 8 4 5 5 2 2 3 4 4 4 5 3 4 2 3 2 3 2 5 7 6 6 5 6 7
18 18 16 16 18 16 14 11 9 8 7 6 6 6 6 1 3 6 7 5 7 3 3 3 3 3 4 6 4 2 3 3 3 1 1 2 2 3 4 5 3 4 6
18 19 19 16 16 18 17 14 10 11 9 8 5 4 3 3 1 1 2 5 6 4 3 3 3 3 4 3 3 4 3 3 1 0 1 1 1 2 2 4 5 6 5
20 20 22 20 18 17 17 16 13 12 11 9 7 7 6 1 4 7 2 6 7 4 4 3 1 3 3 4 2 4 5 3 4 1 2 2 2 2 1 3 3 4 6
21 19 21 21 18 17 16 16 16 13 11 11 9 7 5 4 4 12 6 7 6 5 2 5 6 1 2 4 4 5 5 4 3 4 3 2 2 3 2 4 3 4 4
19 20 19 20 16 16 15 16 16 14 12 12 11 9 7 8 5 3 3 4 6 4 4 2 6 4 5 4 4 3 4 4 3 4 5 2 2 1 1 2 5 7 4
18 18 16 17 16 16 16 15 17 14 14 13 13 11 9 8 6 11 8 5 5 3 5 5 4 4 3 4 5 4 3 4 3 4 5 3 4 3 3 3 1 5 3
14 18 16 13 16 16 15 15 18 16 15 14 13 11 11 7 5 6 4 5 4 6 8 5 5 6 6 4 4 2 4 4 4 5 5 5 4 4 4 3 3 2 3
11 16 18 15 16 15 15 14 17 16 15 15 12 11 11 10 7 5 7 4 5 5 10 7 6 6 5 6 5 4 5 3 2 1 4 5 3 4 3 3 3 2 1
9 10 16 16 14 17 15 14 17 16 16 15 13 12 12 11 7 7 9 7 6 5 8 8 7 7 5 5 4 5 5 4 2 5 4 6 5 2 3 2 2 3 2
8 10 8 12 14 14 15 16 15 17 14 14 13 12 11 12 10 8 9 8 6 8 8 8 7 7 6 6 4 8 6 4 5 6 5 5 6 5 5 6 5 5 3
11 8 10 7 5 9 12 14 16 16 15 14 13 13 12 12 12 9 9 8 7 7 8 9 8 7 6 6 6 4 7 6 5 5 4 3 2 1 5 4 5 4 4
6 6 5 5 2 4 4 6 13 14 15 13 14 14 12 11 12 11 10 11 9 9 9 9 9 9 7 7 7 7 6 6 6 4 4 4 5 5 3 5 2 3 3
8 8 5 6 1 3 2 2 1 8 8 12 14 13 13 12 10 11 10 11 11 11 10 10 9 9 8 8 8 7 6 6 6 5 5 5 5 4 4 4 3 1 2
11 9 10 6 2 3 1 1 2 0 2 2 4 7 10 9 8 7 9 9 11 11 11 11 9 10 9 9 9 9 8 7 5 5 5 7 9 11 6 1 5 6 4
9 8 7 5 6 5 3 4 3 2 2 3 2 7 10 10 11 10 10 9 10 11 12 12 11 11 8 18 15 12 9 8 7 6 6 6 9 7 7 10 9 5 4
7 6 4 6 7 6 3 2 3 3 4 5 5 4 7 9 9 9 11 11 13 12 11 13 12 11 8 19 16 16 10 9 7 7 7 7 7 7 5 4 4 5 7
7 4 3 5 8 8 7 4 5 5 7 9 11 11 11 14 14 13 13 11 10 12 10 10 11 11 9 17 18 17 11 10 9 8 7 5 8 5 5 5 5 6 5
5 3 3 5 4 2 5 5 3 8 6 8 6 4 4 5 10 12 14 12 11 12 11 10 12 13 12 18 20 15 12 10 8 8 6 9 7 9 5 4 2 2 7
3 5 6 7 9 8 9 5 2 8 10 10 11 10 7 6 9 10 10 10 10 12 12 13 13 12 12 17 18 14 9 11 8 8 7 8 9 11 7 2 2 1 3
3 4 7 6 6 3 2 4 6 6 4 9 11 10 9 11 11 10 8 10 13 11 12 12 12 9 11 13 16 18 7 9 9 8 7 6 13 12 10 4 2 3 3
4 6 5 4 3 6 2 5 7 8 7 7 6 8 9 9 8 9 9 11 12 12 6 9 2 3 9 12 16 17 12 13 9 11 10 10 17 14 12 6 4 1 3
4 5 4 5 6 7 4 3 4 7 9 7 9 6 7 8 9 9 10 9 10 8 12 12 14 15 11 12 17 18 10 6 8 6 11 18 18 14 8 8 8 4 4
5 6 7 7 6 4 5 4 4 5 7 8 9 7 4 4 4 5 7 9 10 10 12 10 10 11 10 9 11 10 6 6 6 8 10 14 12 9 7 5 6 5 5
4 8 7 7 7 7 6 10 4 3 5 8 7 1 2 3 5 6 5 8 11 13 11 8 9 11 11 12 14 15 12 8 7 8 8 8 7 6 4 4 6 7 6
3 4 7 6 8 8 8 9 3 3 5 6 4 2 3 3 3 5 2 9 4 6 4 5 2 9 9 19 18 16 13 11 16 8 8 7 6 6 7 7 7 8 10
Wind_Direction
181 168 176 181 159 157 158 185 169 155 150 147 184 222 215 215 225 120 87 160 102 81 33 175 279 282 83 80 40 344 285 318 41 40 12 346 89 113 112 83 75 120 154
183 172 187 178 162 158 163 176 179 154 163 181 188 199 222 231 207 145 140 126 112 118 251 280 329 303 92 72 59 352 312 307 77 309 201 60 1 67 111 129 160 151 136
192 186 183 193 176 164 164 173 185 167 176 194 195 213 266 158 29 61 148 157 145 176 94 346 87 33 39 98 5 25 30 337 32 338 231 24 56 115 12 82 56 45 48
185 192 187 193 188 170 168 168 179 174 182 209 199 206 206 187 47 336 204 144 135 144 146 98 336 43 38 71 122 50 348 5 342 267 129 316 140 135 108 71 107 108 85
185 196 189 184 198 182 174 169 173 180 188 197 228 194 213 191 120 202 194 160 129 123 109 193 110 108 14 95 75 47 20 355 346 348 349 44 249 155 194 147 172 87 138
182 183 193 178 186 179 175 170 171 182 189 191 208 240 212 222 132 76 241 145 110 116 141 284 134 142 121 131 92 107 63 22 24 355 313 5 11 9 2 108 162 151 144
180 173 190 172 174 178 175 171 167 178 187 194 196 212 239 225 165 146 215 145 110 149 172 201 146 146 134 113 133 94 102 62 26 4 324 345 38 15 8 357 16 128 127
166 170 174 178 169 174 175 177 167 175 185 199 200 198 211 230 241 188 130 114 147 183 162 183 166 143 138 148 116 167 81 42 51 9 341 332 35 26 29 3 22 13 135
152 169 168 189 171 175 176 177 163 174 182 194 198 199 196 212 213 222 127 157 177 146 160 182 160 133 169 153 157 127 112 138 129 106 355 326 49 33 3 5 9 38 341
134 168 170 181 192 177 175 176 164 175 179 192 195 200 195 199 232 153 165 179 186 149 156 163 152 151 175 147 137 142 120 108 347 87 22 350 22 317 20 12 3 21 339
169 149 185 183 187 181 180 179 173 172 181 193 191 198 192 190 200 178 167 190 175 138 161 159 163 167 167 155 119 73 101 102 82 82 61 31 3 12 30 32 18 37 29
138 150 167 168 248 187 181 182 176 182 184 191 188 190 186 188 186 198 181 176 167 151 159 161 175 180 161 156 136 168 119 125 116 95 144 147 112 99 52 65 53 44 44
81 119 86 85 223 258 173 177 176 182 178 189 187 186 184 187 186 191 180 179 174 163 157 173 179 175 162 165 134 120 126 124 124 138 126 114 83 58 69 56 61 75 35
43 58 124 119 325 348 91 45 47 180 182 181 191 187 183 184 193 185 185 185 165 162 163 169 173 170 164 148 120 129 125 128 142 163 151 129 112 92 59 97 98 89 116
73 51 41 37 2 314 350 291 304 35 128 182 176 160 159 168 175 194 195 176 166 165 164 162 173 162 154 147 144 153 146 142 137 142 122 88 96 75 40 154 34 28 13
83 59 13 46 52 6 175 159 202 208 169 144 148 138 156 170 179 193 182 176 173 173 167 166 164 161 170 145 155 160 149 142 149 131 108 125 118 102 89 85 82 86 49
92 71 26 340 32 46 88 148 168 180 159 149 167 175 167 180 190 186 168 179 180 179 180 164 164 171 161 150 154 161 152 153 174 162 147 177 135 149 130 117 98 98 96
92 69 356 347 40 28 39 101 132 164 176 186 186 177 188 184 183 183 187 187 183 169 169 167 170 162 158 160 160 172 163 174 172 147 174 155 158 148 174 175 195 192 164
89 43 338 358 80 33 109 90 125 140 182 214 225 338 17 254 195 193 189 177 170 167 173 175 179 177 158 174 175 189 179 158 167 156 172 156 156 135 96 336 180 168 163
74 12 9 344 45 10 6 12 195 172 186 214 230 231 186 228 194 194 190 168 174 174 177 177 189 175 165 187 183 195 177 163 165 167 138 123 147 147 143 226 270 196 82
46 9 15 18 29 177 37 329 332 335 200 196 212 228 214 202 213 194 178 178 186 192 181 177 169 156 164 191 199 204 186 172 171 173 168 145 143 144 154 163 337 77 329
31 25 13 27 3 335 170 42 8 355 348 332 208 220 213 217 210 193 185 185 182 186 161 145 99 144 161 190 212 210 230 171 191 175 173 161 160 164 162 160 180 127 299
11 12 32 13 34 31 27 331 349 335 321 309 310 259 227 219 219 201 185 176 172 160 141 180 175 197 185 185 201 216 201 263 197 202 175 156 156 160 160 185 173 190 234
355 7 12 6 351 351 318 281 241 258 285 292 289 290 296 252 205 224 185 189 180 180 187 205 203 201 164 161 189 199 199 204 112 110 124 143 149 157 171 170 179 209 228
19 32 360 330 319 313 315 300 222 254 290 285 281 163 269 188 166 181 204 198 199 200 197 201 195 186 183 183 178 186 186 189 152 132 127 142 156 173 178 184 193 206 214
22 310 281 311 317 305 289 274 257 257 279 275 276 245 196 195 200 196 140 34 352 164 170 99 190 180 191 153 168 172 174 183 163 165 163 158 174 174 190 197 214 219 205